Starlink 1680

operational
NORAD ID: 46558 Int'l Des: 2020-070 Owner: SPXS Country: US Constellation: starlink
LEOCIRCULARSTARLINK_TYPE

Über Starlink 1680

Beschreibung wird geladen...

Live-Position

3D-Globus wird geladen...

Nächste Überflüge

Höhenverlauf

Altitude vs Time

uPlot chart will show altitude changes over time

Zweizeiliger Elementsatz

1 46558U 20070AC 25305.57910765 .00073347 00000-0 17539-2 0 9993
2 46558 53.0535 10.0214 0008793 346.3723 13.7042 15.40807585280475
Epoch: 1. Nov. 2025 • Age: 21 hours

Aktueller Status

Höhe 460.5 km
Geschwindigkeit 7.64 km/s
Subsatellitenpunkt -46.06°S, 26.88°E
Startdatum 6. Okt. 2020
Alter 5 years
Typ internet

Technische Details

Klassifizierung Payload
Masse 260.00 kg
Trockenmasse 248.00 kg
Gesamtmasse 260.00 kg
Länge 0.20 m
Durchmesser 2.80 m
Spannweite 9.00 m
Form Box + pan
Hersteller SPXS
Bus-Typ Starlink
Phasenstatus In Orbit
Besitzer/Staat SPXS/US

Große Konstellationen

Loading constellations...